Tracking 25734 objects as of 29-May-2022
HD Live streaming from Space Station
objects crossing your sky now

SL-6 R/B(2)

Track SL-6 R/B(2) now!


NORAD ID: 12159
Int'l Code: 1981-009D
Perigee: 844.1 km
Apogee: 38,476.7 km
Inclination: 61.8 °
Period: 696.6 minutes
Semi major axis: 26031 km
RCS: 7.8038 m2 (large)
Launch date: January 30, 1981
Source: Commonwealth of Independent States (former USSR) (CIS)
Launch site: PLESETSK MISSILE AND SPACE COMPLEX (PKMTR)

Note: This is a ROCKET BODY
aabbcc
Your satellite tracking list
Your tracking list is empty




NASA's NSSDC Master Catalog

Two Line Element Set (TLE):
1 12159U 81009D   22145.06690422 -.00000667  00000-0  00000-0 0  9999
2 12159  61.8298 177.8446 7228308 262.1746  15.6871  2.06707999303956
Source of the keplerian elements: AFSPC